Home   Weather   Cupertino   Past weeks

Flag for USA Past Weather in Cupertino, California, USA — Yesterday and Last 2 Weeks

Now
50 °F

Sunny.


Feels Like: 46 °F
Forecast: 41 / 53 °F
Wind: 9 mph from North

Location: Moffett Field

Current Time: Feb 23, 2017 at 10:29:04 am

Latest Report: Feb 23, 2017 at 9:56 am


Visibility: 10 mi

Pressure: 30.26 "Hg

Humidity: 61%

Dew Point: 37 °F

Location of CupertinoLocation

Past Weather in Cupertino — Graph

°F

Cupertino Temperature Yesterday

Maximum temperature yesterday: 54 °F (at 12:56 pm)
Minimum temperature yesterday: 42 °F (at 5:56 am)
Average temperature yesterday: 49 °F

High & Low Weather Summary for the Past Weeks

 TemperatureHumidityPressure
High70 °F (Feb 15, 3:56 pm)100% (Feb 13, 7:56 am)30.30 "Hg (Feb 13, 7:56 am)
Low41 °F (Feb 23, 6:56 am)31% (Feb 15, 5:56 pm)29.16 "Hg (Feb 17, 4:56 pm)
Average55 °F79%29.99 "Hg
* Reported Feb 8 8:05 am — Feb 23 8:56 am, Cupertino, Weather by CustomWeather, © 2017

Note: Actual official high and low records may vary slightly from our data, if they occured in-between our weather recording intervals... More about our weather records

Advertising

Cupertino Weather History for the Previous 24 Hours

Scroll right to see more
 ConditionsComfort  
Time TempWeatherWind HumidityBarometerVisibility
8:56 am
Thu, Feb 23
48 °FPassing clouds.10 mph63%30.26 "Hg10 mi
7:56 am44 °FSunny.6 mph71%30.26 "Hg10 mi
6:56 am41 °FSunny.3 mph76%30.24 "Hg10 mi
5:56 am42 °FClear.5 mph73%30.22 "Hg10 mi
4:56 am42 °FClear.6 mph73%30.22 "Hg10 mi
3:56 am43 °FClear.3 mph68%30.22 "Hg10 mi
2:56 am44 °FClear.9 mph71%30.22 "Hg10 mi
1:56 am44 °FClear.9 mph73%30.23 "Hg10 mi
12:56 am44 °FClear.3 mph73%30.23 "Hg10 mi
11:56 pm
Wed, Feb 22
46 °FClear.10 mph66%30.24 "Hg10 mi
10:56 pm46 °FClear.8 mph68%30.24 "Hg10 mi
9:56 pm47 °FClear.12 mph66%30.24 "Hg10 mi
8:56 pm47 °FPassing clouds.8 mph71%30.24 "Hg10 mi
7:56 pm48 °FClear.8 mph71%30.23 "Hg10 mi
6:56 pm48 °FPartly cloudy.9 mph68%30.23 "Hg10 mi
5:56 pm50 °FClear.10 mph61%30.22 "Hg10 mi
4:56 pm52 °FPassing clouds.14 mph55%30.22 "Hg10 mi
3:56 pm54 °FPassing clouds.15 mph47%30.22 "Hg10 mi
2:56 pm54 °FSunny.14 mph51%30.22 "Hg10 mi
1:56 pm53 °FPassing clouds.10 mph55%30.23 "Hg10 mi
12:56 pm54 °FSunny.14 mph53%30.25 "Hg10 mi
11:56 am53 °FScattered clouds.14 mph59%30.27 "Hg10 mi
10:56 am51 °FPartly sunny.12 mph61%30.29 "Hg10 mi
Weather by CustomWeather, © 2017

See weather overviewHow to use our weather pages